Temp
-7 -7 -7 -7 -7 -7 -7 -7 -8 -8 -8 -8 -8 -8 -8 -8 -8 -8 -8 -8 -8 -8 -8 -8 -9 -8 -8 -8 -8 -7 -7 -8 -8 -8 -8 -7 -7 -7 -7 -7 -7 -6 -6
-7 -7 -7 -7 -7 -7 -7 -8 -8 -8 -7 -7 -8 -9 -9 -8 -8 -8 -9 -9 -9 -9 -9 -9 -9 -9 -9 -9 -9 -8 -7 -7 -8 -8 -8 -8 -8 -7 -7 -6 -7 -7 -7
-7 -8 -8 -8 -8 -8 -8 -8 -8 -8 -8 -8 -9 -9 -10 -10 -10 -9 -9 -9 -9 -10 -9 -8 -9 -10 -9 -8 -9 -8 -8 -7 -8 -8 -8 -8 -8 -7 -8 -7 -7 -7 -7
-8 -8 -9 -8 -8 -8 -8 -8 -8 -8 -9 -8 -8 -9 -8 -9 -9 -9 -9 -9 -9 -9 -9 -10 -10 -10 -9 -7 -7 -7 -8 -7 -8 -8 -8 -8 -8 -8 -7 -7 -7 -7 -7
-9 -9 -8 -8 -8 -8 -8 -8 -8 -8 -8 -9 -8 -8 -8 -8 -9 -9 -9 -9 -9 -9 -9 -9 -9 -10 -9 -9 -8 -8 -8 -8 -8 -8 -8 -8 -8 -8 -8 -7 -7 -7 -7
-7 -8 -8 -8 -8 -6 -8 -7 -7 -8 -9 -9 -9 -9 -9 -8 -8 -9 -9 -9 -9 -9 -9 -9 -9 -9 -9 -9 -9 -9 -9 -8 -8 -8 -8 -8 -8 -8 -8 -8 -7 -7 -8
-8 -8 -7 -8 -8 -8 -8 -8 -9 -10 -9 -9 -8 -8 -8 -8 -8 -8 -9 -9 -9 -9 -9 -8 -8 -8 -8 -8 -9 -9 -9 -9 -9 -8 -8 -8 -8 -8 -8 -8 -7 -8 -8
-9 -9 -8 -8 -9 -8 -8 -9 -8 -8 -9 -9 -9 -8 -8 -8 -8 -8 -8 -8 -8 -9 -9 -9 -9 -9 -9 -9 -9 -9 -9 -9 -9 -8 -8 -8 -8 -8 -8 -8 -8 -8 -8
-8 -9 -9 -9 -9 -9 -9 -9 -9 -9 -9 -9 -9 -9 -9 -8 -8 -8 -8 -8 -8 -9 -9 -9 -9 -9 -9 -9 -9 -9 -9 -9 -9 -9 -9 -8 -8 -8 -8 -8 -8 -8 -8
-10 -10 -10 -10 -9 -9 -10 -10 -9 -9 -10 -10 -9 -9 -9 -9 -9 -8 -9 -8 -9 -9 -9 -9 -9 -9 -9 -9 -9 -9 -9 -9 -9 -9 -9 -9 -8 -9 -9 -8 -8 -8 -8
-10 -10 -9 -9 -8 -8 -10 -10 -10 -11 -11 -11 -11 -11 -10 -10 -10 -10 -10 -9 -9 -9 -9 -9 -9 -9 -9 -9 -9 -9 -9 -9 -9 -9 -9 -9 -9 -9 -9 -9 -9 -8 -8
-10 -10 -10 -9 -9 -10 -10 -10 -11 -11 -11 -11 -11 -11 -11 -11 -11 -10 -10 -10 -9 -9 -9 -9 -9 -9 -9 -9 -9 -9 -9 -9 -9 -9 -9 -9 -9 -9 -9 -9 -9 -8 -8
-10 -10 -10 -10 -10 -9 -10 -11 -11 -11 -11 -11 -11 -11 -11 -10 -10 -10 -10 -10 -10 -9 -9 -9 -9 -9 -9 -9 -10 -9 -9 -9 -9 -9 -9 -9 -9 -9 -9 -9 -9 -9 -9
-10 -10 -10 -10 -10 -10 -10 -10 -11 -11 -11 -11 -11 -11 -11 -11 -10 -10 -10 -10 -10 -10 -10 -10 -10 -9 -10 -10 -10 -9 -9 -9 -9 -9 -9 -9 -9 -9 -9 -9 -9 -9 -9
-10 -10 -10 -10 -10 -10 -10 -11 -11 -10 -10 -11 -11 -11 -11 -11 -11 -11 -11 -11 -10 -10 -10 -10 -10 -10 -10 -10 -10 -10 -10 -10 -10 -10 -9 -9 -9 -9 -9 -9 -9 -9 -9
-11 -10 -10 -10 -10 -10 -10 -11 -10 -10 -11 -11 -11 -11 -11 -11 -11 -11 -11 -11 -11 -11 -11 -11 -11 -11 -11 -11 -11 -11 -11 -11 -11 -10 -10 -10 -10 -10 -11 -11 -10 -10 -11
-11 -11 -11 -11 -11 -11 -11 -11 -11 -12 -11 -11 -11 -11 -11 -11 -11 -11 -11 -12 -12 -12 -11 -12 -12 -12 -12 -12 -12 -12 -12 -12 -12 -12 -12 -12 -11 -12 -12 -12 -11 -11 -11
-12 -12 -12 -12 -12 -12 -12 -12 -12 -12 -12 -13 -13 -12 -12 -12 -12 -12 -12 -12 -12 -12 -12 -12 -12 -13 -13 -13 -12 -12 -12 -12 -12 -12 -12 -12 -12 -12 -12 -12 -11 -12 -12
-13 -12 -12 -13 -13 -13 -13 -13 -13 -13 -13 -13 -14 -14 -14 -13 -13 -13 -13 -13 -13 -13 -13 -13 -13 -13 -13 -13 -13 -12 -12 -12 -12 -12 -12 -13 -13 -13 -12 -12 -12 -12 -12
-14 -14 -14 -14 -14 -14 -14 -15 -15 -15 -15 -15 -15 -14 -15 -15 -15 -15 -14 -13 -13 -13 -14 -14 -13 -13 -13 -13 -13 -13 -12 -12 -12 -13 -13 -13 -13 -13 -13 -12 -12 -12 -12
-15 -14 -14 -14 -15 -15 -15 -15 -15 -16 -15 -15 -15 -15 -15 -15 -15 -15 -15 -15 -14 -14 -14 -14 -13 -14 -13 -13 -13 -13 -12 -13 -13 -13 -13 -14 -14 -13 -13 -13 -12 -12 -12
-16 -16 -16 -16 -17 -17 -16 -16 -16 -16 -16 -16 -16 -16 -15 -15 -15 -15 -15 -15 -15 -14 -14 -14 -14 -13 -13 -13 -13 -12 -13 -13 -13 -14 -14 -14 -14 -14 -14 -13 -13 -13 -12
-17 -17 -16 -16 -16 -16 -16 -16 -16 -16 -16 -16 -16 -16 -16 -16 -15 -15 -15 -14 -14 -14 -14 -14 -14 -14 -13 -13 -13 -13 -13 -13 -13 -14 -14 -14 -14 -14 -14 -14 -13 -13 -13
-16 -17 -16 -16 -16 -16 -16 -16 -16 -16 -16 -16 -16 -16 -15 -15 -15 -15 -15 -15 -15 -14 -14 -14 -14 -14 -14 -14 -14 -13 -14 -14 -14 -14 -14 -14 -14 -14 -14 -14 -14 -14 -14
-17 -17 -17 -17 -17 -17 -17 -17 -17 -17 -17 -16 -16 -16 -16 -16 -16 -16 -16 -16 -16 -15 -15 -14 -14 -14 -14 -14 -14 -15 -14 -14 -14 -14 -14 -14 -14 -14 -15 -15 -15 -15 -15
-18 -18 -18 -18 -17 -17 -17 -17 -17 -17 -17 -17 -17 -17 -17 -17 -17 -17 -17 -17 -16 -16 -15 -15 -15 -15 -15 -15 -15 -15 -15 -15 -15 -15 -15 -15 -14 -14 -15 -15 -15 -15 -15
Height
5898 5900 5900 5899 5899 5901 5902 5902 5903 5904 5903 5904 5904 5906 5906 5907 5907 5909 5909 5910 5910 5913 5913 5913 5912 5913 5912 5908 5906 5903 5900 5898 5897 5894 5891 5889 5886 5882 5879 5876 5873 5870 5866
5894 5893 5895 5895 5896 5897 5897 5895 5896 5896 5897 5898 5900 5901 5901 5904 5905 5907 5906 5906 5906 5907 5905 5906 5904 5904 5902 5902 5900 5897 5898 5893 5892 5890 5887 5883 5879 5877 5873 5870 5867 5863 5860
5891 5890 5890 5890 5889 5890 5892 5892 5892 5893 5897 5897 5896 5896 5896 5895 5898 5901 5902 5902 5902 5898 5895 5894 5894 5894 5890 5870 5890 5890 5892 5888 5885 5884 5882 5878 5873 5870 5867 5863 5860 5855 5851
5884 5881 5881 5881 5883 5884 5883 5883 5885 5888 5887 5888 5889 5890 5890 5890 5894 5894 5892 5893 5894 5893 5891 5889 5888 5887 5888 5887 5885 5882 5881 5881 5876 5875 5875 5871 5865 5862 5857 5854 5852 5849 5844
5877 5877 5877 5877 5877 5877 5873 5873 5875 5876 5878 5882 5883 5885 5884 5885 5886 5886 5885 5883 5882 5882 5880 5878 5876 5875 5877 5878 5877 5875 5873 5871 5868 5866 5865 5862 5859 5854 5848 5846 5844 5841 5838
5869 5864 5868 5856 5863 5861 5861 5858 5866 5870 5873 5876 5878 5880 5880 5878 5877 5878 5878 5876 5874 5871 5869 5868 5866 5866 5867 5867 5868 5867 5865 5863 5859 5855 5853 5852 5849 5845 5840 5838 5835 5833 5829
5856 5854 5863 5854 5851 5854 5854 5847 5852 5865 5868 5869 5870 5871 5871 5869 5867 5866 5866 5866 5864 5863 5861 5859 5857 5856 5855 5854 5853 5852 5851 5848 5847 5846 5844 5841 5837 5834 5831 5828 5826 5821 5819
5856 5857 5857 5852 5849 5851 5846 5847 5853 5857 5857 5858 5859 5860 5860 5859 5857 5856 5855 5854 5854 5852 5850 5849 5847 5844 5839 5839 5839 5837 5836 5836 5833 5832 5830 5829 5825 5824 5822 5818 5815 5810 5810
5843 5843 5844 5843 5848 5846 5844 5846 5847 5847 5849 5849 5849 5849 5849 5848 5847 5846 5845 5843 5841 5840 5838 5836 5834 5832 5828 5825 5825 5825 5824 5822 5819 5819 5817 5815 5815 5812 5811 5807 5804 5800 5800
5836 5836 5840 5844 5842 5836 5835 5837 5838 5837 5837 5838 5839 5838 5837 5836 5835 5834 5833 5831 5828 5827 5825 5823 5820 5819 5817 5814 5814 5813 5812 5810 5807 5806 5804 5803 5802 5800 5797 5794 5793 5791 5789
5830 5831 5831 5830 5825 5824 5824 5824 5825 5826 5825 5825 5826 5825 5824 5823 5822 5820 5816 5815 5815 5814 5811 5809 5806 5803 5802 5801 5800 5800 5799 5798 5796 5794 5792 5789 5787 5786 5784 5782 5783 5782 5781
5819 5819 5818 5817 5813 5812 5812 5812 5811 5811 5810 5811 5809 5808 5807 5806 5805 5804 5803 5801 5801 5799 5796 5794 5792 5790 5788 5787 5785 5783 5782 5781 5779 5778 5776 5774 5773 5771 5770 5770 5771 5771 5770
5812 5810 5807 5805 5803 5800 5798 5798 5797 5797 5797 5796 5793 5792 5791 5790 5789 5788 5788 5787 5785 5783 5781 5780 5777 5774 5772 5770 5769 5768 5765 5762 5761 5760 5759 5757 5756 5757 5757 5758 5758 5758 5758
5799 5797 5795 5793 5791 5789 5786 5784 5782 5781 5781 5780 5779 5777 5775 5772 5771 5770 5769 5768 5767 5766 5765 5762 5759 5759 5757 5755 5753 5752 5750 5749 5747 5744 5743 5743 5742 5743 5743 5744 5745 5745 5746
5789 5788 5786 5783 5782 5781 5779 5775 5773 5772 5770 5767 5765 5763 5762 5759 5756 5755 5753 5752 5751 5751 5749 5746 5744 5741 5739 5737 5736 5735 5734 5733 5732 5730 5729 5729 5728 5728 5728 5730 5731 5732 5734
5779 5778 5776 5774 5772 5769 5766 5763 5761 5759 5754 5751 5750 5750 5748 5746 5744 5742 5740 5738 5736 5734 5732 5730 5726 5723 5722 5721 5720 5720 5718 5717 5716 5715 5714 5714 5714 5715 5716 5717 5718 5719 5720
5766 5764 5762 5760 5758 5757 5754 5751 5748 5741 5738 5734 5734 5733 5731 5730 5727 5726 5723 5720 5718 5717 5716 5713 5710 5708 5707 5706 5705 5704 5703 5701 5701 5700 5699 5699 5700 5701 5703 5705 5706 5707 5708
5750 5749 5747 5744 5742 5738 5736 5733 5730 5728 5725 5720 5715 5714 5712 5712 5710 5708 5706 5705 5702 5698 5696 5696 5694 5692 5692 5690 5689 5688 5688 5687 5686 5685 5685 5685 5685 5687 5690 5692 5693 5694 5696
5734 5732 5730 5727 5725 5722 5719 5717 5713 5710 5707 5704 5701 5696 5694 5693 5690 5687 5687 5686 5684 5681 5680 5678 5677 5677 5676 5674 5673 5672 5672 5672 5671 5671 5670 5671 5672 5673 5676 5679 5680 5681 5683
5719 5717 5715 5712 5710 5708 5704 5701 5698 5694 5689 5685 5682 5679 5677 5675 5672 5670 5667 5666 5665 5664 5663 5662 5661 5660 5659 5658 5658 5657 5657 5656 5655 5655 5655 5655 5657 5659 5662 5663 5665 5667 5670
5704 5702 5700 5697 5694 5690 5687 5682 5680 5676 5674 5671 5667 5663 5659 5656 5655 5654 5652 5650 5648 5648 5647 5645 5645 5644 5643 5642 5642 5641 5639 5639 5638 5638 5638 5639 5641 5643 5645 5648 5651 5653 5656
5690 5688 5686 5683 5680 5677 5674 5671 5669 5665 5661 5658 5653 5649 5645 5642 5638 5636 5635 5635 5633 5633 5632 5631 5630 5629 5627 5626 5625 5624 5623 5622 5622 5622 5623 5623 5625 5627 5629 5631 5635 5638 5641
5680 5678 5674 5671 5668 5666 5662 5659 5654 5649 5645 5641 5637 5632 5628 5624 5621 5618 5616 5616 5616 5616 5616 5615 5615 5614 5612 5611 5609 5608 5607 5607 5607 5608 5608 5609 5610 5611 5613 5615 5618 5623 5626
5666 5664 5661 5658 5654 5651 5647 5643 5638 5635 5631 5627 5622 5617 5612 5608 5604 5601 5599 5599 5598 5598 5599 5600 5600 5598 5597 5596 5595 5595 5594 5593 5593 5593 5593 5594 5594 5595 5596 5598 5601 5606 5610
5652 5649 5646 5643 5640 5637 5633 5631 5628 5624 5620 5614 5607 5602 5596 5590 5585 5582 5581 5581 5582 5582 5584 5586 5586 5585 5584 5584 5583 5582 5581 5579 5579 5579 5579 5579 5580 5579 5580 5583 5586 5590 5594
5637 5635 5633 5631 5630 5627 5625 5623 5619 5614 5608 5601 5595 5589 5582 5575 5569 5565 5566 5568 5570 5571 5573 5573 5572 5572 5573 5572 5571 5571 5569 5568 5566 5564 5564 5564 5565 5565 5566 5569 5572 5576 5580
Wind_Speed
21 20 21 20 17 16 16 14 15 17 16 14 14 14 15 15 13 14 14 15 16 16 18 22 22 28 26 19 18 15 13 12 16 20 20 21 23 23 24 25 26 27 27
23 22 20 16 15 15 17 18 20 22 21 19 17 17 17 17 15 15 17 20 22 23 25 28 36 39 35 36 21 16 20 17 18 21 24 25 27 28 27 27 29 31 31
22 18 21 19 23 22 24 26 26 24 22 20 20 21 23 22 17 21 24 27 29 34 35 34 44 35 38 19 12 15 23 23 19 19 24 29 29 30 28 29 29 30 33
23 27 27 27 27 28 30 33 31 31 28 31 29 25 23 23 25 26 29 33 37 38 40 42 42 43 37 15 22 22 25 27 25 24 25 28 30 32 31 32 31 32 34
27 29 29 30 31 35 37 40 42 43 40 18 20 13 16 20 27 28 26 30 31 33 35 36 37 37 33 25 25 29 32 34 31 32 31 29 31 33 35 34 35 32 32
36 33 32 41 39 46 53 48 41 33 20 3 8 17 20 21 24 26 29 29 33 36 37 38 33 34 34 32 33 33 35 36 36 35 36 34 33 33 36 35 36 35 32
45 31 39 47 56 33 13 8 8 12 13 15 17 21 26 29 30 32 33 34 35 36 38 39 37 37 38 38 39 38 39 39 39 40 39 37 35 36 37 38 38 38 37
47 47 49 55 49 28 21 23 19 22 20 22 24 27 31 34 35 36 37 39 38 39 39 39 39 41 41 41 42 43 44 44 43 40 39 39 39 40 40 40 41 41 39
39 38 35 43 33 28 26 26 27 25 26 26 28 30 33 35 36 38 41 43 44 43 43 44 43 43 44 45 47 47 47 46 44 43 42 44 44 44 44 42 41 42 42
33 34 35 36 34 31 30 32 33 32 32 33 34 35 37 39 42 43 43 44 45 47 47 49 50 49 49 47 46 46 46 47 48 48 47 48 47 45 44 43 42 45 46
34 37 42 42 42 38 37 36 35 35 35 36 38 40 41 42 44 46 48 50 51 52 51 52 52 51 48 47 48 49 49 50 49 48 48 49 49 47 47 46 45 46 46
45 52 50 47 47 44 44 43 41 40 40 41 42 44 46 47 47 48 50 51 51 51 50 51 50 49 50 51 52 52 51 50 51 52 52 52 51 50 49 48 47 47 47
34 35 40 44 45 46 48 47 44 44 45 46 46 47 47 48 48 48 47 49 49 49 49 51 52 54 56 54 52 52 54 55 52 50 49 48 47 45 44 43 42 42 42
37 40 42 43 45 48 51 53 53 53 53 53 55 55 55 53 55 55 54 54 54 54 56 55 55 54 53 53 54 52 50 50 49 49 48 47 46 45 45 44 43 43 42
34 38 41 44 45 47 49 51 54 56 56 56 57 58 58 57 56 56 55 55 55 56 54 54 54 54 54 54 52 50 49 49 49 48 47 47 47 46 45 45 45 45 45
36 38 39 42 45 47 48 51 55 55 55 57 57 57 58 59 59 58 58 58 57 56 54 54 55 54 54 52 50 49 49 48 47 46 45 45 45 43 40 38 39 40 40
40 41 43 46 48 50 52 54 55 57 58 59 58 57 56 55 56 57 57 55 56 57 57 55 54 52 50 49 49 48 47 46 45 43 43 42 42 42 40 36 35 37 38
43 44 45 48 50 52 53 55 57 57 57 57 59 59 58 57 55 54 55 53 52 53 53 52 51 51 51 51 50 48 45 44 42 41 40 41 42 44 44 39 42 42 42
44 46 46 46 46 46 48 51 54 57 58 58 57 56 55 54 55 56 54 53 51 50 50 49 48 48 48 46 45 44 43 44 44 43 41 40 40 40 42 41 42 38 38
38 38 35 37 40 42 43 44 46 50 52 53 55 57 56 55 53 54 55 54 51 49 46 46 44 44 45 45 44 44 44 44 44 44 43 44 42 40 39 40 41 41 39
39 39 40 38 38 38 40 40 43 44 45 46 48 51 51 50 50 48 47 48 48 48 46 45 44 44 44 44 44 44 43 42 42 42 42 42 44 44 45 44 41 40 39
37 34 33 33 33 34 36 38 40 41 43 45 47 48 50 51 50 51 51 50 48 49 48 47 46 47 47 45 44 43 42 42 42 40 40 40 40 40 40 42 43 42 42
32 33 36 37 38 40 41 42 42 43 43 42 42 42 43 45 44 46 47 50 51 48 45 45 44 44 43 43 42 40 40 39 38 38 39 40 41 41 43 43 43 43 41
40 40 40 39 40 41 40 40 40 38 38 42 46 46 45 46 47 47 46 46 46 44 44 42 41 40 38 37 36 35 36 37 38 38 39 37 36 38 38 39 41 41 44
42 41 41 39 39 37 37 37 36 36 40 44 44 45 45 46 46 44 43 42 39 35 35 37 37 35 34 33 32 33 34 33 34 38 37 33 32 34 35 34 37 39 40
40 35 32 32 31 30 31 32 35 38 43 41 40 38 34 34 35 30 29 29 25 26 29 29 30 30 29 30 30 28 28 30 32 36 37 38 38 37 37 37 35 34 39
Wind_Direction
240 246 250 254 253 254 252 251 244 242 240 234 226 226 229 233 234 242 243 255 260 254 255 258 256 251 256 245 252 256 262 286 301 305 307 306 306 311 316 320 321 320 322
237 237 242 244 240 236 236 232 232 227 226 224 229 231 235 243 248 258 266 269 274 273 260 260 268 278 289 244 232 270 283 288 294 299 303 303 305 307 311 312 313 315 318
244 240 243 243 243 237 238 239 234 231 235 238 236 236 239 242 250 262 270 276 281 281 287 288 307 311 323 221 252 281 282 287 285 288 298 301 303 304 307 307 312 312 315
240 238 237 243 247 244 243 239 239 238 228 233 232 248 259 264 266 266 273 281 283 286 290 286 291 294 301 293 289 296 294 290 292 293 287 293 297 301 307 308 310 311 313
240 244 248 252 254 248 243 238 236 241 242 252 232 288 284 269 269 273 282 286 283 280 284 293 296 291 282 285 288 291 293 292 292 295 296 296 295 297 301 304 307 308 310
245 237 260 245 243 264 253 244 249 249 252 301 258 270 273 272 273 276 278 282 278 279 282 285 287 286 282 279 276 282 286 289 292 293 295 296 294 295 295 300 301 303 306
261 259 253 261 262 292 286 224 242 333 296 279 276 278 281 280 280 280 281 280 278 280 282 283 285 284 286 289 292 290 290 291 293 291 291 292 290 292 294 297 300 303 306
243 250 254 261 287 299 316 322 309 298 295 286 287 283 282 285 285 285 283 282 282 281 280 281 285 287 288 289 290 291 291 289 288 289 289 287 290 291 293 295 298 299 301
250 263 275 267 276 293 298 297 296 296 291 285 281 280 279 281 280 280 282 285 285 285 286 286 285 285 286 287 287 285 285 285 287 287 288 288 287 288 288 291 293 294 296
273 284 286 281 284 291 293 293 293 291 288 286 284 283 283 283 283 284 284 284 285 286 287 286 286 286 285 283 282 282 283 284 285 285 285 283 283 284 287 289 291 292 294
264 267 273 284 296 297 293 291 287 285 284 282 281 281 282 280 280 280 284 284 284 283 282 283 284 284 282 281 280 279 278 278 279 280 279 280 281 282 282 283 284 284 288
255 265 266 281 288 290 291 291 289 288 286 284 283 283 283 282 281 281 282 281 281 281 281 281 280 279 279 279 279 280 281 280 279 278 278 278 277 278 279 279 279 279 281
278 277 280 281 283 284 286 288 287 285 284 285 285 284 282 282 282 282 280 281 281 282 280 278 277 278 279 279 280 280 280 282 281 281 280 279 278 278 276 276 276 276 277
272 275 277 277 279 284 287 288 289 288 288 287 287 287 287 287 285 285 284 284 282 280 278 277 277 275 274 276 278 278 277 277 278 279 279 278 277 277 276 275 274 273 273
274 273 274 278 280 281 281 282 283 282 283 284 285 285 285 285 284 283 282 282 280 278 277 275 274 275 277 279 278 277 277 278 279 277 275 275 274 274 274 273 272 272 272
272 273 275 277 278 279 279 279 278 278 279 280 280 281 281 280 280 279 279 278 277 276 274 274 276 278 279 278 278 278 279 279 278 277 275 272 271 269 268 270 270 270 271
272 275 276 276 275 274 275 275 276 278 279 278 277 276 276 277 277 276 276 276 277 276 277 278 278 277 276 276 277 278 278 276 278 277 274 271 269 265 262 260 266 268 267
276 275 274 273 274 274 275 276 276 275 275 278 278 277 277 277 276 276 276 276 277 277 276 277 276 275 276 278 278 277 273 274 277 276 272 270 268 260 258 264 262 267 266
273 274 276 279 279 280 280 279 278 276 275 274 276 278 276 276 278 279 279 279 277 275 275 274 274 274 277 276 276 275 274 274 274 274 270 267 265 261 257 261 260 266 264
279 280 281 284 284 283 283 283 282 281 280 280 281 282 282 282 278 277 277 277 276 275 274 274 275 277 277 276 276 275 273 275 274 272 268 264 262 260 258 257 259 263 261
281 283 287 286 286 287 288 290 289 287 286 285 283 283 282 280 280 278 275 275 275 276 276 274 274 276 277 278 276 277 276 274 272 270 267 265 263 260 259 258 260 258 257
288 288 289 289 288 287 287 287 286 286 286 285 285 284 282 281 279 277 276 273 272 271 272 273 275 277 277 278 280 278 274 273 271 269 267 266 265 262 259 258 255 256 254
287 288 290 290 292 293 295 294 292 291 292 292 291 289 288 286 284 282 279 276 271 268 269 272 273 277 276 279 279 276 272 271 271 270 268 265 264 265 260 260 256 254 250
294 295 295 296 297 299 299 296 295 296 296 299 299 296 292 288 285 281 280 280 277 273 265 268 273 276 279 279 275 272 273 273 272 268 270 268 267 264 259 255 251 246 243
294 293 293 296 296 297 297 299 300 299 303 304 301 299 296 293 287 282 276 272 274 270 264 267 274 277 279 274 274 275 277 276 273 270 268 261 268 260 254 250 247 244 242
293 292 293 293 294 297 299 301 303 302 306 308 308 307 310 308 304 289 273 270 269 269 270 271 273 276 275 273 273 277 278 279 279 275 265 259 259 257 249 244 246 246 242